JCSAT-5A

Last updated on Sun Apr 12 2026 00:02:51 GMT+0000 (Coordinated Universal Time)

1 29045U 06010A 26101.49141918 -.00000326 00000+0 00000+0 0 9994 2 29045 0.9353 84.9516 0002382 344.6617 79.0518 1.00269594 73108
UTC large
Height (km)
Speed (km/s)
/
Latitude / Longitude
Inclination (degrees)
Orbital Period (minutes)
Azimuth
Elevation
Range (km)
Doppler Factor

Next 0 passes for location: London (51.5072 / 0.1276)

Sorry there are no passes over London.
JCSAT-5A